Theta_e
298 298 299 299 301 302 306 306 305 306 307 308 309 311 311 311 310 309 309 309 311 311 311 311 310 310 309 307 306 303 302 302
297 297 297 298 299 300 301 303 305 305 305 304 305 306 306 305 305 307 306 307 308 308 310 309 308 307 306 305 304 303 302 301
296 295 296 296 297 297 297 297 298 300 300 300 300 300 299 299 300 301 301 300 300 300 300 300 301 301 300 301 301 301 300 300
295 295 294 294 294 294 294 295 295 295 295 294 294 294 293 293 294 294 294 294 294 294 294 294 295 295 295 295 296 297 298 298
293 294 294 294 293 293 293 294 294 293 292 291 291 291 291 291 291 291 291 290 290 290 290 290 291 291 289 289 291 291 291 292
293 292 292 292 292 292 291 291 290 289 288 287 287 287 287 286 286 285 286 286 286 286 286 286 288 288 287 286 287 287 287 287
294 293 292 291 290 289 288 287 287 285 285 285 284 283 283 283 283 283 283 283 284 284 284 284 285 291 291 290 285 285 285 286
293 292 290 289 289 286 286 285 284 282 282 282 282 281 281 282 282 282 282 282 282 283 283 283 284 288 289 289 285 284 284 285
293 290 288 287 285 285 284 283 281 281 280 280 279 279 280 280 280 280 281 281 282 282 283 283 283 287 288 288 284 284 284 284
292 288 286 284 283 282 281 280 279 278 278 278 277 277 278 277 278 279 279 280 280 282 281 281 282 286 287 287 284 284 284 284
286 285 283 282 281 280 278 277 276 277 277 276 276 276 276 277 277 277 278 279 279 280 280 280 280 285 287 286 283 284 284 285
283 281 281 280 280 277 276 275 275 275 275 275 275 276 275 275 276 275 275 276 275 277 278 278 279 281 285 286 283 283 283 283
278 277 279 279 278 275 273 274 273 274 273 273 273 275 274 273 274 273 273 272 273 273 274 276 277 280 282 283 284 284 280 280
275 274 275 276 276 273 272 272 272 272 272 272 273 273 273 272 272 273 272 270 270 273 272 273 276 276 280 280 282 282 280 281
273 271 271 272 272 271 270 270 271 271 271 272 272 272 272 273 273 270 267 268 270 270 270 272 273 274 276 278 278 280 280 281
273 272 270 269 268 268 268 269 270 270 271 270 271 270 271 272 269 271 270 270 266 265 270 272 272 274 279 279 278 279 280 281
272 270 269 268 266 266 266 267 269 269 269 268 269 269 269 269 268 273 274 275 276 276 275 275 278 278 278 279 280 280 281 279
271 269 268 267 265 265 265 265 265 266 267 267 268 268 267 267 266 265 268 272 274 275 275 276 275 277 277 278 277 275 274 268
268 267 267 265 263 264 264 263 263 264 264 265 265 265 264 264 264 263 261 262 264 269 273 273 274 275 275 275 270 265 266 265
266 264 264 263 262 262 262 262 262 263 263 261 261 260 260 259 259 258 256 256 257 258 266 266 272 272 271 270 263 263 263 263
Wind_Speed
5 5 4 5 4 6 6 5 5 6 6 5 6 6 5 5 5 5 4 3 4 4 4 4 3 2 3 3 3 5 4 4
5 5 4 4 5 5 5 6 6 6 6 7 7 6 6 7 6 5 5 5 5 5 4 4 3 4 3 1 1 4 4 4
6 5 4 5 5 6 6 7 6 6 8 9 9 9 9 8 8 7 7 6 6 6 6 6 6 5 3 2 4 4 4 4
7 6 6 5 6 6 6 6 6 6 8 9 9 9 8 8 7 7 7 7 7 7 7 6 6 6 5 5 4 4 4 5
7 7 7 7 7 6 6 6 7 8 9 10 9 9 8 8 8 8 7 7 7 6 6 7 6 6 6 5 4 3 4 5
9 7 6 6 7 7 6 6 7 9 10 8 7 8 8 8 7 7 7 6 6 6 7 6 5 4 5 5 5 5 6 6
9 9 8 8 7 8 7 7 7 8 9 7 7 7 7 7 7 7 7 7 6 7 7 7 4 11 10 8 6 6 6 8
13 11 8 8 9 9 8 7 6 8 7 7 6 7 6 6 7 7 7 6 6 6 6 6 5 12 14 12 5 6 6 6
14 12 11 8 9 10 9 7 7 8 8 6 6 6 6 6 7 6 4 4 4 4 4 4 4 14 15 14 4 4 6 6
12 14 12 11 10 11 8 7 8 7 7 6 6 5 5 6 5 4 3 4 4 3 6 7 8 16 17 15 7 8 7 5
14 13 13 10 11 11 8 8 8 6 7 6 5 4 5 6 5 3 2 4 5 6 4 5 6 14 17 14 4 11 10 11
14 13 11 10 11 11 9 9 6 6 6 6 5 4 5 3 3 5 5 5 4 5 5 5 5 8 18 18 8 9 11 10
14 12 9 10 11 11 10 7 6 5 6 5 4 4 6 7 6 4 4 5 6 5 4 3 5 12 14 18 19 20 11 12
13 12 8 8 7 11 7 6 5 5 5 7 6 6 5 5 3 4 5 4 4 4 4 6 6 6 16 18 21 20 14 11
11 10 9 7 9 8 7 5 6 7 6 5 5 4 4 3 3 3 3 2 3 4 6 6 7 7 8 9 10 14 13 17
9 9 9 8 7 7 6 5 6 5 4 4 3 3 2 2 1 1 3 2 2 1 2 6 7 7 17 17 12 12 15 19
6 9 8 6 7 6 5 4 4 5 3 3 2 2 2 1 2 6 7 9 9 10 8 4 13 20 21 23 23 24 25 11
10 9 9 8 7 5 4 4 4 4 3 3 3 1 1 2 2 3 5 10 10 13 14 14 17 18 20 20 21 19 16 7
11 10 9 9 7 5 3 3 4 3 4 2 2 2 1 1 2 2 2 5 6 10 14 16 18 21 20 21 13 7 9 7
8 8 8 9 7 5 3 3 3 2 2 1 0 0 1 2 1 1 2 3 4 4 9 10 17 19 18 17 6 7 8 7
Wind_Direction
139 113 89 86 70 51 67 90 62 43 49 58 57 62 74 83 83 89 87 80 85 85 86 85 78 113 165 169 182 196 199 208
123 100 96 92 85 80 73 77 75 78 74 73 72 66 65 69 65 76 74 74 68 64 86 86 86 88 91 107 217 223 229 210
135 139 125 106 93 86 73 71 67 66 77 71 67 61 59 59 51 49 63 55 54 48 47 39 37 35 46 7 351 316 292 269
147 158 140 119 99 90 83 81 80 73 76 73 69 68 59 53 47 44 56 52 48 51 54 47 33 26 25 17 4 320 302 300
175 158 142 136 121 107 94 89 86 81 73 68 62 64 59 53 50 48 44 49 45 42 44 38 30 32 14 356 341 308 291 292
177 156 144 126 117 107 91 81 84 83 77 72 70 67 64 57 48 46 45 39 38 44 37 32 34 15 357 341 328 318 302 282
157 153 159 150 134 115 96 83 81 88 81 71 69 64 60 58 55 50 38 34 25 28 24 14 5 344 348 338 318 312 304 300
167 161 151 141 132 123 108 92 101 93 83 74 67 65 51 52 51 42 32 21 13 18 13 358 343 349 344 335 307 294 282 278
166 149 146 131 113 110 100 111 101 86 80 66 65 64 52 53 48 35 22 7 353 5 344 326 341 346 342 340 318 300 295 298
147 137 126 122 117 111 112 106 97 86 78 65 56 57 54 50 32 22 1 5 343 346 354 352 338 343 345 349 342 334 323 301
132 126 118 121 119 116 108 98 87 83 81 70 61 61 58 37 19 346 328 353 349 348 337 317 317 326 339 347 331 334 328 320
119 117 117 116 117 112 108 99 98 92 86 73 58 60 55 45 18 10 0 338 348 352 349 337 340 345 348 344 335 324 322 317
110 104 102 113 117 110 104 109 97 98 97 84 66 56 35 29 16 344 351 1 348 355 342 338 355 347 345 347 345 337 325 313
108 99 66 70 101 113 114 111 114 113 88 59 47 38 29 22 356 10 8 8 334 353 353 350 349 340 345 339 334 330 321 310
108 109 107 90 92 104 118 117 87 75 66 61 56 39 32 5 17 15 4 318 292 357 358 346 341 340 330 329 328 323 321 311
130 128 123 125 115 98 93 95 99 102 92 75 70 52 27 6 340 339 262 281 354 290 330 339 331 322 334 334 327 320 313 312
115 122 123 108 101 90 78 87 113 113 106 95 79 53 39 12 313 340 360 352 355 355 351 331 335 342 335 333 334 336 336 325
145 135 128 125 119 108 105 110 111 111 116 81 71 79 48 15 0 335 336 355 1 359 357 358 352 343 343 346 351 348 359 359
139 137 134 131 135 132 134 119 112 115 114 135 140 104 73 12 321 334 342 335 338 352 356 359 348 353 357 358 2 359 5 355
125 129 134 135 138 136 139 129 120 146 113 75 41 168 196 233 257 301 23 354 320 336 346 336 343 354 0 8 10 352 348 346